TimeEST,TemperatureF,Dew PointF,Humidity,Sea Level PressureIn,VisibilityMPH,Wind Direction,Wind SpeedMPH,Gust SpeedMPH,PrecipitationIn,Events,Conditions,WindDirDegrees,DateUTC
12:12 AM,37.4,37.4,100,29.91,3.0,Calm,Calm,-,N/A,,Clear,0,2013-01-30 05:12:00
12:51 AM,39.0,37.0,93,29.90,4.0,Calm,Calm,-,N/A,,Clear,0,2013-01-30 05:51:00
1:51 AM,43.0,39.9,89,29.85,9.0,SSE,5.8,-,N/A,,Clear,160,2013-01-30 06:51:00
2:51 AM,57.9,46.9,67,29.81,10.0,SSE,9.2,-,0.01,,Clear,150,2013-01-30 07:51:00
3:51 AM,57.9,48.0,70,29.76,10.0,SE,8.1,-,N/A,,Clear,140,2013-01-30 08:51:00
4:51 AM,62.1,51.1,67,29.72,10.0,South,9.2,-,0.01,,Partly Cloudy,180,2013-01-30 09:51:00
5:51 AM,64.0,50.0,60,29.70,10.0,South,15.0,25.3,N/A,,Clear,190,2013-01-30 10:51:00
6:51 AM,64.9,50.0,58,29.67,10.0,South,9.2,17.3,N/A,,Clear,190,2013-01-30 11:51:00
7:51 AM,64.9,50.0,58,29.65,10.0,South,18.4,29.9,N/A,,Clear,170,2013-01-30 12:51:00
8:51 AM,66.9,51.1,57,29.62,10.0,South,16.1,31.1,N/A,,Clear,180,2013-01-30 13:51:00
9:51 AM,69.1,52.0,54,29.62,10.0,South,17.3,32.2,N/A,,Partly Cloudy,190,2013-01-30 14:51:00
10:51 AM,69.1,52.0,54,29.60,10.0,South,16.1,29.9,N/A,,Mostly Cloudy,180,2013-01-30 15:51:00
11:30 AM,64.4,53.6,68,29.65,2.0,West,33.4,46.0,0.00,Rain,Light Rain,260,2013-01-30 16:30:00
11:37 AM,57.2,51.8,82,29.68,1.0,West,20.7,46.0,0.04,Rain,Heavy Rain,280,2013-01-30 16:37:00
11:41 AM,57.2,51.8,82,29.68,2.0,West,21.9,41.4,0.06,Rain,Heavy Rain,280,2013-01-30 16:41:00
11:51 AM,57.0,51.1,81,29.70,4.0,West,16.1,32.2,0.08,Rain,Rain,280,2013-01-30 16:51:00
12:18 PM,57.2,51.8,82,29.69,5.0,South,6.9,17.3,0.02,Rain,Light Rain,170,2013-01-30 17:18:00
12:46 PM,57.2,51.8,82,29.68,7.0,South,4.6,-,0.05,Rain,Light Rain,190,2013-01-30 17:46:00
12:51 PM,55.9,51.1,84,29.70,7.0,South,3.5,-,0.05,Rain,Light Rain,170,2013-01-30 17:51:00
1:51 PM,55.9,53.1,90,29.64,8.0,Calm,Calm,-,0.03,Rain,Light Rain,0,2013-01-30 18:51:00
2:51 PM,55.0,53.1,93,29.58,5.0,Calm,Calm,-,0.08,Rain,Rain,0,2013-01-30 19:51:00
3:51 PM,55.0,52.0,89,29.58,4.0,SE,4.6,-,0.12,Rain,Rain,140,2013-01-30 20:51:00
4:51 PM,54.0,52.0,93,29.55,6.0,SE,4.6,-,0.10,Rain,Rain,130,2013-01-30 21:51:00
4:58 PM,53.6,51.8,94,29.54,6.0,SSE,3.5,-,0.01,Rain,Light Rain,150,2013-01-30 21:58:00
5:51 PM,53.1,51.1,93,29.50,6.0,South,3.5,-,0.09,Rain,Rain,190,2013-01-30 22:51:00
6:51 PM,53.1,51.1,93,29.45,7.0,SSE,3.5,-,0.11,Rain,Rain,150,2013-01-30 23:51:00
7:51 PM,54.0,50.0,86,29.39,9.0,SSE,3.5,-,0.10,Rain,Light Rain,160,2013-01-31 00:51:00
8:51 PM,54.0,51.1,90,29.34,4.0,SSE,4.6,-,0.15,Rain,Heavy Rain,160,2013-01-31 01:51:00
9:32 PM,51.8,46.4,82,29.37,6.0,West,17.3,26.5,0.10,Rain,Light Rain,270,2013-01-31 02:32:00
9:47 PM,50.0,44.6,82,29.38,5.0,West,9.2,24.2,0.12,Rain,Rain,280,2013-01-31 02:47:00
9:51 PM,50.0,45.0,83,29.37,5.0,West,9.2,20.7,0.13,Rain,Rain,280,2013-01-31 02:51:00
10:22 PM,50.0,44.6,82,29.37,8.0,SSE,6.9,-,0.07,Rain,Light Rain,160,2013-01-31 03:22:00
10:51 PM,50.0,45.0,83,29.35,6.0,South,5.8,-,0.11,Rain,Heavy Rain,180,2013-01-31 03:51:00
11:51 PM,48.9,45.0,86,29.33,6.0,Calm,Calm,-,0.14,Rain,Rain,0,2013-01-31 04:51:00